�N����,����,�~����,�C��,���x,�C��,����,���ϕ���,�ő�u�ԕ���,�ő厞����,���˗�,�I�_���x,�n�����x,�ő啗���N��,DTYPE
"16/09/20","00:10",0.0,20.2,94.7,1002.2,336.8,1.2,2.0,347.0,0.00,19.4,23.3,"00:01:20",1
"16/09/20","00:20",0.0,20.1,94.8,1001.9,331.0,1.0,1.3,316.0,0.00,19.3,23.5,"00:16:24",1
"16/09/20","00:30",0.0,20.1,94.9,1002.2,331.2,0.8,1.4,343.5,0.00,19.3,23.3,"00:20:08",1
"16/09/20","00:40",0.0,19.9,95.0,1002.2,323.1,0.8,1.3,348.1,0.00,19.1,23.5,"00:35:52",1
"16/09/20","00:50",0.0,19.9,95.2,1002.2,317.8,0.8,1.2,327.4,0.00,19.1,23.4,"00:41:52",1
"16/09/20","01:00",0.0,19.9,95.2,1002.2,323.5,1.0,1.7,317.5,0.00,19.1,23.2,"00:58:48",1
"16/09/20","01:10",0.0,19.9,95.2,1002.2,322.1,1.3,2.0,318.1,0.00,19.1,23.2,"01:00:16",1
"16/09/20","01:20",0.0,20.0,95.1,1002.2,329.3,1.5,2.4,302.6,0.00,19.2,23.4,"01:16:48",1
"16/09/20","01:30",0.0,19.9,94.9,1002.2,332.7,1.5,3.1,346.5,0.00,19.1,23.4,"01:26:08",1
"16/09/20","01:40",0.0,19.9,94.9,1001.9,327.9,1.3,2.2,346.4,0.00,19.1,23.4,"01:36:00",1
"16/09/20","01:50",0.0,19.9,94.8,1001.9,332.9,1.2,2.1,345.8,0.00,19.1,23.3,"01:46:48",1
"16/09/20","02:00",0.0,19.9,94.9,1001.9,334.1,1.1,2.2,341.9,0.00,19.1,23.2,"01:53:44",1
"16/09/20","02:10",0.0,20.0,95.1,1002.2,316.5,1.1,2.1,338.9,0.00,19.2,23.0,"02:03:20",1
"16/09/20","02:20",0.0,20.0,95.1,1002.2,319.1,1.2,1.9,346.1,0.00,19.2,23.4,"02:16:40",1
"16/09/20","02:30",0.0,20.0,94.9,1001.9,314.4,1.2,1.8,314.7,0.00,19.2,23.0,"02:21:04",1
"16/09/20","02:40",0.0,20.1,94.9,1001.9,311.4,1.1,1.4,309.9,0.00,19.3,23.2,"02:32:48",1
"16/09/20","02:50",0.0,20.2,94.7,1001.9,313.0,1.2,1.9,339.3,0.00,19.4,23.0,"02:41:12",1
"16/09/20","03:00",0.0,20.3,94.6,1001.7,303.7,1.0,1.6,323.6,0.00,19.4,23.3,"02:50:16",1
"16/09/20","03:10",0.0,20.3,94.4,1001.5,314.9,1.2,1.8,354.2,0.00,19.4,23.2,"03:05:36",1
"16/09/20","03:20",0.0,20.3,94.3,1001.5,303.7,0.8,1.6,312.4,0.00,19.4,23.1,"03:11:44",1
"16/09/20","03:30",0.0,20.4,94.2,1001.5,294.7,1.0,1.2,300.4,0.00,19.5,23.3,"03:21:04",1
"16/09/20","03:40",0.0,20.4,93.9,1001.5,300.3,1.1,1.4,309.1,0.00,19.4,23.2,"03:35:44",1
"16/09/20","03:50",0.0,20.5,93.7,1001.5,308.4,1.1,1.8,304.5,0.00,19.5,23.1,"03:44:00",1
"16/09/20","04:00",0.0,20.5,93.4,1001.2,298.3,1.0,1.4,306.5,0.00,19.4,23.1,"03:52:16",1
"16/09/20","04:10",0.0,20.7,93.2,1001.2,319.6,1.2,3.5,342.6,0.00,19.6,23.1,"04:04:56",1
"16/09/20","04:20",0.0,20.8,92.6,1001.2,314.9,1.1,2.1,345.6,0.00,19.6,23.1,"04:14:56",1
"16/09/20","04:30",0.0,20.9,92.0,1001.0,315.5,1.1,2.1,328.7,0.00,19.6,23.1,"04:27:36",1
"16/09/20","04:40",0.0,20.9,91.5,1001.0,320.0,1.2,2.7,348.1,0.00,19.5,23.0,"04:30:56",1
"16/09/20","04:50",0.0,21.0,91.2,1001.0,323.2,1.3,3.2,344.1,0.00,19.5,23.1,"04:42:48",1
"16/09/20","05:00",0.0,21.1,91.0,1001.2,318.5,1.2,2.6,349.1,0.00,19.6,23.2,"04:58:24",1
"16/09/20","05:10",0.0,21.1,90.9,1000.5,323.9,1.5,3.3,342.3,0.00,19.6,23.0,"05:05:44",1
"16/09/20","05:20",0.0,21.3,90.2,1001.0,327.4,1.5,4.1,340.8,0.00,19.7,23.2,"05:13:12",1
"16/09/20","05:30",0.0,21.4,89.6,1001.2,329.6,1.8,3.4,2.3,0.00,19.7,23.0,"05:20:08",1
"16/09/20","05:40",0.0,21.5,89.1,1000.5,338.6,2.1,4.0,334.8,0.00,19.7,23.0,"05:39:12",1
"16/09/20","05:50",0.0,21.6,88.4,1000.8,343.9,2.3,5.8,348.3,0.00,19.6,23.1,"05:43:44",1
"16/09/20","06:00",0.0,21.7,87.8,1001.2,344.6,2.7,6.5,349.1,0.00,19.6,23.2,"05:55:20",1
"16/09/20","06:10",0.0,21.7,87.9,1001.5,335.5,2.1,4.8,346.4,0.00,19.6,22.9,"06:05:36",1
"16/09/20","06:20",0.0,21.6,88.1,1001.5,330.8,2.1,4.4,345.7,0.00,19.6,22.9,"06:11:20",1
"16/09/20","06:30",0.0,21.6,87.5,1001.2,339.1,2.2,4.8,348.4,0.00,19.5,23.0,"06:26:56",1
"16/09/20","06:40",0.0,21.7,87.4,1001.5,332.7,2.0,3.9,347.3,0.00,19.6,22.9,"06:37:12",1
"16/09/20","06:50",0.0,21.5,87.3,1001.5,335.9,1.6,3.4,358.1,0.00,19.3,23.1,"06:42:08",1
"16/09/20","07:00",0.0,21.5,87.1,1001.0,342.0,2.2,4.7,336.8,0.00,19.3,23.1,"06:52:24",1
"16/09/20","07:10",0.0,21.4,87.6,1001.5,330.1,1.7,3.4,332.4,0.00,19.3,23.0,"07:01:04",1
"16/09/20","07:20",0.2,21.2,88.4,1001.2,311.3,1.1,2.0,340.9,0.00,19.2,22.9,"07:18:24",1
"16/09/20","07:30",1.0,21.0,89.7,1001.2,327.0,1.2,3.1,323.9,0.00,19.3,23.1,"07:21:36",1
"16/09/20","07:40",0.8,20.8,90.8,1001.5,326.8,1.0,2.6,342.8,0.00,19.3,22.7,"07:31:36",1
"16/09/20","07:50",0.8,20.7,91.6,1001.5,308.8,0.8,1.7,350.8,0.00,19.3,23.0,"07:42:56",1
"16/09/20","08:00",0.4,20.7,92.5,1000.5,301.6,0.6,1.1,316.2,0.01,19.5,23.0,"07:58:56",1
"16/09/20","08:10",0.8,20.8,92.9,1000.3,294.2,0.6,2.4,356.3,0.01,19.6,22.8,"08:00:32",1
"16/09/20","08:20",0.4,20.7,93.1,1000.8,226.9,0.8,2.0,229.0,0.00,19.6,22.9,"08:19:44",1
"16/09/20","08:30",1.4,20.6,93.4,1000.8,240.1,1.0,1.8,233.8,0.00,19.5,22.9,"08:23:52",1
"16/09/20","08:40",1.0,20.7,93.9,1000.5,308.1,0.6,1.7,349.3,0.01,19.7,22.7,"08:37:04",1
"16/09/20","08:50",1.2,20.7,94.0,1000.8,285.4,0.3,0.6,314.9,0.00,19.7,23.0,"08:42:48",1
"16/09/20","09:00",0.8,20.6,94.3,1000.8,298.9,0.6,1.1,226.8,0.00,19.7,22.8,"08:53:20",1
"16/09/20","09:10",1.0,20.6,94.6,1000.8,302.7,0.5,0.9,340.0,0.00,19.7,22.8,"09:03:52",1
"16/09/20","09:20",0.0,20.6,94.7,1000.0,283.5,0.5,1.1,235.0,0.00,19.8,22.8,"09:19:52",1
"16/09/20","09:30",0.0,20.5,94.9,1000.8,245.6,1.1,2.9,228.9,0.00,19.7,23.0,"09:26:56",1
"16/09/20","09:40",4.8,20.5,95.0,1000.5,312.7,0.8,1.4,236.7,0.00,19.7,22.6,"09:30:16",1
"16/09/20","09:50",2.0,20.3,95.1,1000.5,301.2,0.5,1.0,331.2,0.00,19.5,22.9,"09:41:28",1
"16/09/20","10:00",2.6,20.2,95.1,1000.8,256.5,0.7,2.1,237.7,0.00,19.4,22.7,"09:58:48",1
"16/09/20","10:10",0.6,20.2,95.3,1000.5,280.8,0.6,1.2,224.4,0.00,19.5,22.8,"10:08:48",1
"16/09/20","10:20",0.2,20.2,95.4,999.8,337.8,1.1,2.6,358.0,0.00,19.5,22.7,"10:14:40",1
"16/09/20","10:30",0.0,20.4,95.3,999.8,294.6,0.7,1.9,357.2,0.00,19.7,23.1,"10:29:04",1
"16/09/20","10:40",0.0,20.5,94.8,999.8,270.2,0.8,3.3,49.6,0.00,19.7,22.8,"10:31:36",1
"16/09/20","10:50",0.0,20.6,94.2,999.8,304.9,1.1,2.7,350.6,0.01,19.7,22.7,"10:45:28",1
"16/09/20","11:00",0.0,20.7,93.3,999.3,308.1,1.2,3.1,9.7,0.00,19.6,22.8,"10:56:40",1
"16/09/20","11:10",0.2,20.9,92.4,998.9,285.8,0.7,2.7,343.9,0.00,19.7,22.6,"11:03:12",1
"16/09/20","11:20",0.8,21.0,92.2,998.6,267.6,1.1,2.4,222.8,0.01,19.7,22.8,"11:16:16",1
"16/09/20","11:30",0.2,20.8,91.9,998.4,273.2,0.7,2.4,14.9,0.01,19.5,22.6,"11:26:40",1
"16/09/20","11:40",0.4,20.8,91.8,998.2,285.6,0.7,1.7,205.9,0.00,19.5,22.7,"11:32:00",1
"16/09/20","11:50",1.6,20.7,91.9,997.7,289.1,0.8,3.7,12.7,0.00,19.4,22.6,"11:47:36",1
"16/09/20","12:00",0.4,20.5,92.1,997.4,322.3,0.8,2.6,357.4,0.00,19.2,22.7,"11:55:36",1
"16/09/20","12:10",2.8,20.5,92.3,997.4,327.2,1.5,4.8,0.3,0.00,19.2,22.7,"12:06:58",1
"16/09/20","12:20",3.4,20.2,92.6,997.0,317.7,1.5,4.2,354.2,0.00,19.0,22.6,"12:18:00",1
"16/09/20","12:30",1.4,20.3,92.9,996.3,340.5,2.2,6.2,352.6,0.00,19.2,22.7,"12:23:20",1
"16/09/20","12:40",1.6,20.5,92.7,996.3,341.5,2.3,4.9,348.4,0.00,19.3,22.5,"12:36:32",1
"16/09/20","12:50",1.2,20.5,92.4,996.0,349.2,2.5,7.2,356.2,0.00,19.3,22.5,"12:41:04",1
"16/09/20","13:00",1.8,20.7,92.0,995.8,345.7,2.8,8.5,338.7,0.00,19.4,22.5,"12:51:04",1
"16/09/20","13:10",1.0,20.7,92.3,996.0,329.3,2.1,4.4,5.8,0.00,19.4,22.5,"13:02:24",1
"16/09/20","13:20",2.6,20.8,92.4,995.6,342.2,2.6,5.9,326.5,0.00,19.6,22.6,"13:14:56",1
"16/09/20","13:30",1.2,20.9,92.4,995.3,329.9,1.7,5.5,328.2,0.00,19.7,22.4,"13:21:44",1
"16/09/20","13:40",1.6,21.0,92.2,995.1,332.4,2.3,7.4,355.3,0.00,19.7,22.3,"13:34:08",1
"16/09/20","13:50",1.4,21.0,92.1,995.1,340.8,2.2,4.8,354.6,0.00,19.7,22.3,"13:45:04",1
"16/09/20","14:00",1.6,21.2,91.7,994.4,335.2,2.5,6.2,342.0,0.00,19.8,22.5,"13:53:28",1
"16/09/20","14:10",1.8,21.2,91.5,993.9,340.9,3.0,6.4,353.9,0.00,19.8,22.3,"14:08:56",1
"16/09/20","14:20",4.8,21.0,91.5,993.9,342.8,3.2,6.4,335.9,0.00,19.6,22.2,"14:18:40",1
"16/09/20","14:30",1.4,20.8,92.1,993.7,337.1,2.8,7.4,351.3,0.00,19.5,22.2,"14:29:36",1
"16/09/20","14:40",3.4,21.0,92.3,993.4,344.4,3.2,8.0,345.8,0.00,19.7,22.2,"14:30:40",1
"16/09/20","14:50",2.0,21.0,91.7,993.4,351.2,2.8,8.7,28.7,0.00,19.6,22.3,"14:42:48",1
"16/09/20","15:00",5.2,20.7,91.6,993.0,350.8,2.6,6.5,342.4,0.00,19.3,22.3,"14:55:06",1
"16/09/20","15:10",3.6,20.2,92.0,992.2,327.7,2.7,6.8,335.8,0.00,18.9,22.2,"15:03:28",1
"16/09/20","15:20",1.8,20.2,92.2,993.0,330.2,2.6,6.6,330.2,0.00,18.9,22.1,"15:16:32",1
"16/09/20","15:30",1.4,20.3,91.9,992.7,332.9,2.7,7.4,345.9,0.00,19.0,22.4,"15:23:52",1
"16/09/20","15:40",1.8,20.3,91.8,993.0,329.2,2.3,5.1,344.2,0.00,19.0,22.2,"15:37:04",1
"16/09/20","15:50",1.2,20.4,91.7,992.5,336.2,2.3,8.3,352.8,0.00,19.0,22.0,"15:47:22",1
"16/09/20","16:00",0.4,20.6,91.2,993.2,335.5,1.8,4.8,9.5,0.01,19.2,22.2,"15:51:20",1
"16/09/20","16:10",0.6,20.7,91.0,994.4,314.7,1.5,4.9,354.5,0.01,19.2,22.1,"16:05:44",1
"16/09/20","16:20",0.2,21.0,90.2,994.4,338.2,1.6,7.3,24.6,0.00,19.4,22.2,"16:10:24",1
"16/09/20","16:30",0.2,21.1,89.5,995.8,340.0,1.1,3.5,0.3,0.00,19.3,22.2,"16:25:44",1
"16/09/20","16:40",1.0,21.3,89.5,996.3,236.7,1.1,2.8,231.8,0.00,19.5,22.2,"16:34:40",1
"16/09/20","16:50",0.2,21.1,90.2,996.7,225.9,2.1,3.9,217.4,0.00,19.5,22.1,"16:43:28",1
"16/09/20","17:00",0.4,20.9,90.5,997.7,265.7,1.0,2.7,212.7,0.00,19.3,22.2,"16:52:08",1
"16/09/20","17:10",0.0,20.9,91.6,997.9,325.3,0.7,1.7,16.6,0.01,19.5,22.2,"17:05:04",1
"16/09/20","17:20",0.0,20.8,91.9,998.4,316.3,0.6,1.8,349.9,0.00,19.5,22.2,"17:11:28",1
"16/09/20","17:30",0.0,20.6,92.3,998.9,330.4,0.7,2.2,338.5,0.00,19.3,22.0,"17:29:20",1
"16/09/20","17:40",0.4,20.5,92.7,998.9,327.6,0.5,1.4,319.7,0.00,19.3,22.0,"17:30:32",1
"16/09/20","17:50",0.0,20.4,92.8,998.9,322.4,0.8,2.2,3.3,0.00,19.2,22.1,"17:43:36",1
"16/09/20","18:00",0.0,20.4,93.0,999.3,326.7,0.7,1.8,12.2,0.00,19.3,22.1,"17:56:56",1
"16/09/20","18:10",0.0,20.3,93.2,1000.3,329.3,0.3,1.2,338.4,0.00,19.2,22.0,"18:00:24",1
"16/09/20","18:20",0.0,20.3,93.4,1000.8,45.4,0.5,1.0,37.2,0.00,19.2,22.1,"18:15:12",1
"16/09/20","18:30",0.0,20.2,93.4,1001.5,309.5,0.6,1.6,348.9,0.00,19.1,22.2,"18:21:36",1
"16/09/20","18:40",0.0,20.1,93.4,1001.5,335.7,0.5,1.4,354.3,0.00,19.0,22.0,"18:32:40",1
"16/09/20","18:50",0.0,20.1,93.4,1001.9,313.6,0.5,1.2,309.5,0.00,19.0,22.1,"18:44:40",1
"16/09/20","19:00",0.0,20.0,93.6,1002.4,292.2,0.3,1.4,4.1,0.00,19.0,22.2,"18:52:16",1
"16/09/20","19:10",0.0,20.0,93.9,1002.9,323.0,0.3,1.0,338.7,0.00,19.0,22.1,"19:02:24",1
"16/09/20","19:20",0.0,20.0,94.0,1003.1,312.8,0.5,1.4,334.8,0.00,19.0,22.1,"19:14:08",1
"16/09/20","19:30",0.0,19.9,94.1,1003.1,316.6,0.5,1.8,356.7,0.00,19.0,22.1,"19:27:28",1
"16/09/20","19:40",0.0,19.9,94.2,1003.6,322.9,0.6,2.0,332.2,0.00,19.0,22.2,"19:35:28",1
"16/09/20","19:50",0.0,19.9,94.2,1003.6,318.3,0.6,1.3,329.0,0.00,19.0,22.2,"19:43:20",1
"16/09/20","20:00",0.0,19.9,94.1,1003.8,312.9,0.6,1.4,337.9,0.00,19.0,21.9,"19:57:28",1
"16/09/20","20:10",0.0,19.9,93.9,1004.1,325.0,0.7,1.8,320.1,0.00,18.9,22.0,"20:03:20",1
"16/09/20","20:20",0.0,19.9,93.7,1004.3,322.4,0.8,1.6,357.2,0.00,18.9,22.1,"20:15:20",1
"16/09/20","20:30",0.0,19.9,93.5,1004.5,317.7,1.0,1.7,312.9,0.00,18.9,21.9,"20:26:16",1
"16/09/20","20:40",0.0,19.8,93.4,1005.0,318.1,1.0,1.8,322.4,0.00,18.7,22.1,"20:33:52",1
"16/09/20","20:50",0.0,19.9,93.3,1004.8,317.2,1.2,2.5,352.0,0.00,18.8,21.8,"20:47:12",1
"16/09/20","21:00",0.0,20.0,92.9,1005.0,317.3,1.5,3.2,315.4,0.00,18.9,21.8,"20:56:24",1
"16/09/20","21:10",0.0,20.0,92.6,1004.8,319.2,1.2,2.8,295.4,0.00,18.8,21.7,"21:07:28",1
"16/09/20","21:20",0.0,20.0,92.3,1004.8,318.5,1.5,2.6,11.7,0.00,18.8,21.9,"21:16:00",1
"16/09/20","21:30",0.0,19.8,92.3,1005.0,322.3,1.1,2.4,329.3,0.00,18.6,21.8,"21:22:24",1
"16/09/20","21:40",0.0,19.7,92.6,1005.0,296.2,0.8,1.7,339.1,0.00,18.5,21.6,"21:38:08",1
"16/09/20","21:50",0.0,19.6,92.8,1004.8,292.0,1.0,2.2,3.2,0.00,18.4,21.6,"21:47:12",1
"16/09/20","22:00",0.0,19.5,92.7,1005.0,212.1,0.3,0.9,266.3,0.00,18.3,21.7,"21:54:56",1
"16/09/20","22:10",0.0,19.3,92.9,1005.0,305.8,0.8,1.7,338.2,0.00,18.2,21.8,"22:00:32",1
"16/09/20","22:20",0.0,19.4,93.0,1005.2,291.2,0.8,2.2,334.3,0.00,18.3,21.4,"22:13:36",1
"16/09/20","22:30",0.0,19.5,93.4,1005.2,263.0,1.3,3.1,226.8,0.00,18.4,21.7,"22:26:48",1
"16/09/20","22:40",0.0,19.6,92.8,1005.5,311.4,0.6,1.4,329.7,0.00,18.4,21.7,"22:35:44",1
"16/09/20","22:50",0.0,19.4,92.9,1005.2,267.9,1.0,2.4,224.6,0.00,18.3,21.6,"22:46:24",1
"16/09/20","23:00",0.0,19.4,92.8,1005.2,245.2,0.6,1.0,295.9,0.00,18.2,21.4,"22:51:52",1
"16/09/20","23:10",0.0,19.6,93.2,1005.5,219.2,0.7,1.9,187.9,0.00,18.5,21.6,"23:00:02",1
"16/09/20","23:20",0.0,19.9,92.5,1005.7,181.2,0.6,1.6,198.4,0.00,18.7,21.4,"23:18:08",1
"16/09/20","23:30",0.0,19.9,92.2,1005.7,349.5,0.7,1.6,128.8,0.00,18.6,21.6,"23:24:40",1
"16/09/20","23:40",0.0,19.9,92.5,1006.2,309.5,1.0,2.0,336.5,0.00,18.7,21.5,"23:30:48",1
"16/09/20","23:50",0.0,19.7,92.8,1006.2,306.4,0.7,1.2,311.4,0.00,18.5,21.6,"23:44:40",1
"16/09/20","24:00",0.0,19.7,93.3,1006.2,325.1,1.1,2.6,336.4,0.00,18.6,21.5,"23:55:12",1
